Flag for Switzerland Weather past 2 weeks in Montreux, Vaud, Switzerland

Now
63 °F

Partly sunny.


Feels Like: 63 °F
Forecast: 44 / 59 °F
Wind: 9 mph from North

Location: Aigle

Current Time: May 6, 2015 at 3:36:11 PM

Latest Report: May 6, 2015 at 2:00 PM


Visibility: 19 mi

Pressure: 30.01 "Hg

Humidity: 66%

Dew point: 52 °F

Location of MontreuxLocation

Historic Weather in Montreux — Graph

°F

Montreux temperature yesterday

Maximum temperature yesterday: 70 °F (at 7:00 AM)
Minimum temperature yesterday: 58 °F (at 11:00 PM)
Average temperature yesterday: 65 °F

Past Weeks' High & Low Weather Summary

 TemperatureHumidityPressure
High70 °F (May 5, 7:00 AM)97% (Apr 27, 2:00 AM)30.33 "Hg (Apr 27, 2:00 AM)
Low36 °F (Apr 29, 6:00 AM)31% (Apr 24, 6:00 PM)29.44 "Hg (Apr 27, 2:00 PM)
Average56 °F76%29.92 "Hg
* Reported Apr 21 2:00 PM — May 6 2:00 PM, Montreux, Weather by CustomWeather, © 2015

Note: Actual official high and low records may vary slightly from our data, if they occured in-between our weather recording intervals... More about our weather records

Advertising

Montreux weather history for previous 24 hours

 ConditionsComfort  
Time TempWeatherWind HumidityBarometerVisibility
2:00 PM
Wed, May 6
63 °FPartly sunny.9 mph66%30.01 "Hg19 mi
1:00 PM60 °FCool.2 mph61%30.03 "HgN/A
12:00 PM61 °FCool.6 mph65%30.04 "HgN/A
11:00 AM59 °FPassing clouds.3 mph69%30.06 "Hg16 mi
10:00 AM56 °FCool.3 mph82%30.06 "HgN/A
9:00 AM53 °FCool.9 mph82%30.06 "HgN/A
8:00 AM52 °FCool.9 mph92%30.08 "HgN/A
7:00 AM53 °FCool.2 mph88%30.06 "HgN/A
6:00 AM52 °FCool.8 mph92%30.04 "HgN/A
4:00 AM54 °FCool.9 mph89%29.99 "HgN/A
3:00 AM55 °FCool.10 mph87%29.96 "HgN/A
2:00 AM57 °FCool.6 mph92%29.96 "HgN/A
1:00 AM58 °FCool.6 mph93%29.95 "HgN/A
12:00 AM58 °FCool.3 mph95%29.95 "HgN/A
11:00 PM
Tue, May 5
58 °FCool.1 mph95%29.93 "HgN/A
10:00 PM59 °FCool.2 mph92%29.93 "HgN/A
9:00 PM59 °FCool.3 mph93%29.91 "HgN/A
8:00 PM60 °FOvercast.8 mph86%29.89 "Hg9 mi
7:00 PM61 °FCool.9 mph85%29.88 "HgN/A
6:00 PM62 °FCool.13 mph83%29.87 "HgN/A
5:00 PM63 °FRain. Overcast.13 mph85%29.85 "Hg4 mi
4:00 PM67 °FMild.1 mph77%29.81 "HgN/A
3:00 PM65 °FMild.5 mph88%29.83 "HgN/A
Weather by CustomWeather, © 2015

See weather overviewHow to use our weather pages